User: anonymous   Login
Location: Unspecified
(0.0000°N, 0.0000°E)
Time: 01:31:31
(UTC+00:00)
Language:

A-11 Canister half - Orbit

View from above orbital plane
View from above orbital plane
View from above satellite
View from above satellite

Ground track
Ground track

The orbit data is extracted from the following two-line orbital elements,

1    51U 60009C   19144.34977164 -.00000115  00000-0 -28062-3 0  9991
2    51  47.2108 114.2981 0104373  82.3194 278.9433 12.18270721616528
Epoch (UTC): 24 May 2019 08:23:40
Eccentricity: 0.0104373
inclination: 47.2108°
perigee height: 1517 km
apogee height: 1683 km
right ascension of ascending node: 114.2981°
argument of perigee: 82.3194°
revolutions per day: 12.18270721
mean anomaly at epoch: 278.9433°
orbit number at epoch: 61652

The dashed part of the orbit path shows where the satellite is in the earth's shadow,  

DLR